AirNav   Everest Fuels
 
 1548 users online  

01SC York Airport
York, South Carolina, USA

GOING TO YORK?


FAA INFORMATION EFFECTIVE 22 APRIL 2021

Location

FAA Identifier: 01SC
Lat/Long: 35-01-55.4860N 081-15-10.0000W
35-01.924767N 081-15.166667W
35.0320794,-81.2527778
(estimated)
Elevation: 779 ft. / 237.4 m (surveyed)
Variation: 05W (1985)
From city: 3 miles N of YORK, SC
Time zone: UTC -4 (UTC -5 during Standard Time)
Zip code: 29745

Airport Operations

Airport use: Private use. Permission required prior to landing
Activation date: 01/1960
Control tower: no
ARTCC: ATLANTA CENTER
FSS: ANDERSON FLIGHT SERVICE STATION
Attendance: UNATNDD
Wind indicator: yes
Segmented circle: no

Airport Communications

CTAF: 122.9
WX ASOS at UZA (10 nm E): 120.775 (803-981-9388)
WX ASOS at AKH (11 nm NE): 135.725 (704-868-9034)
WX AWOS-3 at DCM (15 nm S): 120.975 (803-385-2011)
WX ASOS at CLT (18 nm NE): 121.15 (704-359-0235)

Nearby radio navigation aids

VOR radial/distance  VOR name  Freq  Var
CLTr242/17.6CHARLOTTE VOR/DME115.0005W
SPAr092/33.1SPARTANBURG VORTAC115.7002W

 
NDB name  Hdg/Dist  Freq  Var  ID
STONIA212/10.626006WGHJ --. .... .---
RALLY320/12.022705WUZ ..- --..
CHESTER356/15.022006WDCM -.. -.-. --
FIRST RIVER134/21.541706WSLP ... .-.. .--.
LANCASTER321/26.840007WLKR .-.. -.- .-.
UNION COUNTY049/28.432606WUOT ..- --- -
FAIRMONT083/36.924805WFRT ..-. .-. -

Airport Services

Parking: tiedowns
Airframe service: MINOR
Powerplant service: MINOR
Bottled oxygen: NONE
Bulk oxygen: NONE

Runway Information

Runway 18/36

Dimensions: 2580 x 118 ft. / 786 x 36 m
Surface: turf, in fair condition
RUNWAY 18  RUNWAY 36
Traffic pattern: leftleft
Runway end identifier lights: nono
Obstructions: 40 ft. trees, 75 ft. from runway, 70 ft. right of centerline, 1:1 slope to clear10 ft. road

Airport Ownership and Management from official FAA records

Ownership: Privately-owned
Owner: YORK AVIATION SERVICES
2551 GOINS LANE
YORK, SC 29745
Phone 803-628-1065
Manager: EDDIE SHIELDS
2551 GOINS LANE
YORK, SC 29745
Phone 704-616-2001

Airport Operational Statistics

Aircraft based on the field: 16
Single engine airplanes: 16
    
Aircraft operations: avg 62/week *
69% local general aviation
31% transient general aviation
* for 12-month period ending 15 August 1990

Additional Remarks

RWY 18/36 HAS A SEVERE LINE OF SIGHT PROBLEM.
RY 18 HAS A DIRT ROAD AT THR.
RY 18 HAS 70 FT TREES 600 FT FROM THR 75 FT L.
RY 36 HAS 35 FT PLINE AT THR 120 FT LEFT AND EXTENDS OUTWARDS.
RY 36 HAS SMALL SHRUBS 70 FT FROM THR 80 FT R.
A/P AVAIL ON CALL.
FOR CD CTC CHARLOTTE APCH AT 704-359-0241.

Instrument Procedures

There are no published instrument procedures at 01SC.

Some nearby airports with instrument procedures:

KUZA - Rock Hill (York County) Airport-Bryant Field (10 nm E)
KAKH - Gastonia Municipal Airport (11 nm NE)
KDCM - Chester Catawba Regional Airport (15 nm S)
KCLT - Charlotte/Douglas International Airport (18 nm NE)
KEHO - Shelby-Cleveland County Regional Airport (22 nm NW)
 
Loc | Ops | Rwys | IFR | FBO | Links
Com | Nav | Svcs | Stats | Notes
Area around 01SC (York Airport)
 
Road maps at: MapQuest Bing Google
 
Aerial photo
WARNING: Photo may not be current or correct
Aerial photo of 01SC (York Airport)
Photo by Amanda Maylor
at or about 800' AGL, looking east.

Do you have a better or more recent aerial photo of York Airport that you would like to share? If so, please send us your photo.

 
Sectional chart

 
Airport distance calculator
Flying to York Airport? Find the distance to fly.

From to 01SC

Sunrise and sunset
Times for 10-May-2021
 Local
(UTC-4)
 Zulu
(UTC)
Morning civil twilight05:5909:59
Sunrise06:2610:26
Sunset20:1600:16
Evening civil twilight20:4400:44

Current date and time
Zulu (UTC)  10-May-2021 21:36:57
Local (UTC-4)  10-May-2021 17:36:57
 
METAR
KUZA 
10nm E 
102054Z AUTO 24006KT 10SM FEW035 26/17 A2991 RMK AO2 SLP117 T02560172 56010
KAKH 
11nm NE 
102054Z AUTO VRB06KT 10SM CLR 24/17 A2990 RMK AO2 SLP120 T02440172 56006
KDCM 
15nm S 
102115Z AUTO 24003KT 10SM SCT040 25/16 A2992 RMK AO2
KCLT 
19nm NE 
102052Z 22009KT 10SM SCT042 BKN180 BKN250 26/17 A2990 RMK AO2 SLP118 CB DSNT W TCU DSNT NW T02560172 56008
TAF
KCLT 
19nm NE 
102002Z 1020/1124 22008G16KT P6SM VCSH SCT040 BKN050 TEMPO 1021/1101 VRB15G30KT 4SM TSRA BR BKN035CB FM110100 35007KT P6SM BKN035 FM110900 03007KT P6SM SCT015 BKN025 FM111400 06007KT P6SM FEW030 BKN040
NOTAMs
Click for the latest NOTAMs
NOTAMs are issued by the DoD/FAA and will open in a separate window not controlled by AirNav.

 

 
 

Would you like to see your business listed on this page?

 If your business provides an interesting product or service to pilots, flight crews, aircraft, or users of the York Airport, you should consider listing it here.  To start the listing process, click on the button below
 
Add a business
 

Other Pages about York Airport

Update a link
 
Copyright © AirNav, LLC. All rights reserved. Privacy Policy  Contact